• In Czech Republic
  • List of Countries
  • For 7 days
  • Water Temperature
  • Satellite Maps
  • Weather Map
  • Weather Widgets
  • user-avatar
    Login

    Hourly Weather Djelfa

    Today, 18 October, Thursday

    Time Temperature Precipitation Wind Pressure Humidity
    00:00 +11°C° 0 mm 8 mps 659 mmHg 81%
    01:00 +10°C° 0 mm 8 mps 659 mmHg 83%
    02:00 +10°C° 0 mm 8 mps 659 mmHg 84%
    03:00 +10°C° 0 mm 8 mps 659 mmHg 85%
    04:00 +10°C° 0 mm 8 mps 658 mmHg 86%
    05:00 +10°C° 0 mm 7 mps 658 mmHg 87%
    06:00 +9°C° 0 mm 7 mps 658 mmHg 88%
    07:00 +10°C° 0 mm 7 mps 658 mmHg 81%
    08:00 +11°C° 0 mm 6 mps 659 mmHg 75%
    09:00 +14°C° 0 mm 6 mps 659 mmHg 68%
    10:00 +15°C° 0 mm 6 mps 659 mmHg 63%
    11:00 +16°C° 0 mm 5 mps 659 mmHg 58%
    12:00 +17°C° 0 mm 5 mps 659 mmHg 53%
    13:00 +19°C° 0 mm 5 mps 659 mmHg 51%
    14:00 +19°C° 0 mm 4 mps 659 mmHg 49%
    15:00 +19°C° 0 mm 4 mps 659 mmHg 46%
    16:00 +19°C° 0 mm 4 mps 659 mmHg 49%
    17:00 +18°C° 0 mm 3 mps 659 mmHg 51%
    18:00 +18°C° 0 mm 3 mps 659 mmHg 54%
    19:00 +17°C° 0 mm 2 mps 659 mmHg 56%
    20:00 +17°C° 0 mm 2 mps 660 mmHg 59%
    21:00 +16°C° 0 mm 1 mps 660 mmHg 61%
    22:00 +16°C° 0 mm 1 mps 660 mmHg 62%
    23:00 +15°C° 0 mm 1 mps 660 mmHg 63%

    Tomorrow, 19 October, Friday

    Time Temperature Precipitation Wind Pressure Humidity
    00:00 +15°C° 0 mm 1 mps 660 mmHg 65%
    01:00 +15°C° 0 mm 1 mps 660 mmHg 65%
    02:00 +14°C° 0 mm 1 mps 660 mmHg 65%
    03:00 +14°C° 0 mm 1 mps 660 mmHg 65%
    04:00 +14°C° 0 mm 1 mps 661 mmHg 66%
    05:00 +14°C° 0 mm 1 mps 661 mmHg 67%
    06:00 +14°C° 0 mm 2 mps 661 mmHg 68%
    07:00 +15°C° 0 mm 2 mps 662 mmHg 61%
    08:00 +17°C° 0 mm 3 mps 663 mmHg 55%
    09:00 +18°C° 0 mm 4 mps 664 mmHg 49%
    10:00 +19°C° 0 mm 5 mps 664 mmHg 45%
    11:00 +20°C° 0 mm 6 mps 664 mmHg 41%
    12:00 +21°C° 0 mm 6 mps 664 mmHg 37%
    13:00 +22°C° 0 mm 6 mps 664 mmHg 36%
    14:00 +22°C° 0 mm 6 mps 664 mmHg 35%
    15:00 +22°C° 0 mm 6 mps 664 mmHg 34%
    16:00 +21°C° 0 mm 6 mps 664 mmHg 37%
    17:00 +20°C° 0 mm 5 mps 664 mmHg 41%
    18:00 +19°C° 0 mm 5 mps 664 mmHg 44%
    19:00 +17°C° 0 mm 5 mps 665 mmHg 47%
    20:00 +17°C° 0 mm 5 mps 665 mmHg 50%
    21:00 +16°C° 0 mm 5 mps 665 mmHg 53%
    22:00 +16°C° 0 mm 5 mps 665 mmHg 55%
    23:00 +15°C° 0 mm 5 mps 666 mmHg 58%

    Day after tomorrow, 20 October, Saturday

    Time Temperature Precipitation Wind Pressure Humidity
    00:00 +15°C° 0 mm 5 mps 666 mmHg 60%
    01:00 +15°C° 0 mm 4 mps 665 mmHg 62%
    02:00 +14°C° 0 mm 4 mps 665 mmHg 64%
    03:00 +14°C° 0 mm 3 mps 665 mmHg 66%
    04:00 +14°C° 0 mm 3 mps 665 mmHg 67%
    05:00 +13°C° 0 mm 4 mps 666 mmHg 67%
    06:00 +13°C° 0 mm 4 mps 666 mmHg 68%
    07:00 +15°C° 0 mm 5 mps 666 mmHg 62%
    08:00 +16°C° 0 mm 6 mps 667 mmHg 56%
    09:00 +17°C° 0 mm 7 mps 668 mmHg 50%
    10:00 +18°C° 0 mm 7 mps 668 mmHg 47%
    11:00 +20°C° 0 mm 7 mps 668 mmHg 45%
    12:00 +21°C° 0 mm 8 mps 668 mmHg 42%
    13:00 +22°C° 0 mm 7 mps 668 mmHg 42%
    14:00 +22°C° 0 mm 7 mps 668 mmHg 42%
    15:00 +22°C° 0 mm 7 mps 667 mmHg 42%
    16:00 +21°C° 0 mm 7 mps 667 mmHg 46%
    17:00 +20°C° 0 mm 6 mps 667 mmHg 50%
    18:00 +19°C° 0 mm 5 mps 667 mmHg 54%
    19:00 +17°C° 0 mm 5 mps 668 mmHg 57%
    20:00 +17°C° 0 mm 5 mps 668 mmHg 60%
    21:00 +17°C° 0 mm 4 mps 668 mmHg 63%
    22:00 +17°C° 0 mm 4 mps 668 mmHg 66%
    23:00 +16°C° 0 mm 3 mps 668 mmHg 69%

    21 October, Sunday

    Time Temperature Precipitation Wind Pressure Humidity
    00:00 +16°C° 0 mm 3 mps 668 mmHg 71%
    01:00 +14°C° 0 mm 3 mps 668 mmHg 73%
    02:00 +15°C° 0 mm 2 mps 667 mmHg 74%
    03:00 +15°C° 0 mm 2 mps 667 mmHg 76%
    04:00 +15°C° 0 mm 2 mps 667 mmHg 76%
    05:00 +14°C° 0 mm 2 mps 667 mmHg 77%
    06:00 +14°C° 0 mm 2 mps 667 mmHg 77%
    07:00 +15°C° 0 mm 2 mps 668 mmHg 71%
    08:00 +17°C° 0 mm 3 mps 668 mmHg 64%
    09:00 +18°C° 0 mm 3 mps 669 mmHg 57%
    10:00 +19°C° 0 mm 3 mps 669 mmHg 53%
    11:00 +21°C° 0 mm 4 mps 669 mmHg 49%
    12:00 +22°C° 0 mm 4 mps 669 mmHg 45%
    13:00 +22°C° 0 mm 4 mps 669 mmHg 43%
    14:00 +22°C° 0 mm 4 mps 668 mmHg 41%
    15:00 +22°C° 0 mm 3 mps 668 mmHg 38%
    16:00 +22°C° 0 mm 3 mps 668 mmHg 41%
    17:00 +21°C° 0 mm 3 mps 668 mmHg 44%
    18:00 +20°C° 0 mm 3 mps 668 mmHg 47%
    19:00 +20°C° 0 mm 3 mps 668 mmHg 50%
    20:00 +19°C° 0 mm 3 mps 668 mmHg 53%
    21:00 +18°C° 0 mm 2 mps 669 mmHg 56%
    22:00 +18°C° 0 mm 2 mps 668 mmHg 59%
    23:00 +18°C° 0 mm 2 mps 668 mmHg 61%

    22 October, Monday

    Time Temperature Precipitation Wind Pressure Humidity
    00:00 +17°C° 0 mm 2 mps 668 mmHg 63%
    01:00 +17°C° 0 mm 2 mps 668 mmHg 65%
    02:00 +16°C° 0 mm 2 mps 668 mmHg 67%
    03:00 +16°C° 0 mm 1 mps 667 mmHg 69%
    04:00 +16°C° 0 mm 1 mps 667 mmHg 69%
    05:00 +15°C° 0 mm 1 mps 667 mmHg 69%
    06:00 +15°C° 0 mm 1 mps 667 mmHg 69%
    07:00 +18°C° 0 mm 1 mps 668 mmHg 62%
    08:00 +18°C° 0 mm 2 mps 669 mmHg 55%
    09:00 +20°C° 0 mm 2 mps 669 mmHg 48%
    10:00 +21°C° 0 mm 2 mps 669 mmHg 42%
    11:00 +23°C° 0 mm 2 mps 669 mmHg 37%
    12:00 +23°C° 0 mm 2 mps 669 mmHg 31%
    13:00 +24°C° 0 mm 2 mps 669 mmHg 30%
    14:00 +24°C° 0 mm 2 mps 668 mmHg 29%
    15:00 +24°C° 0 mm 2 mps 668 mmHg 27%
    16:00 +23°C° 0 mm 2 mps 668 mmHg 30%
    17:00 +21°C° 0 mm 2 mps 668 mmHg 33%
    18:00 +20°C° 0 mm 2 mps 668 mmHg 35%
    19:00 +20°C° 0 mm 2 mps 668 mmHg 38%
    20:00 +20°C° 0 mm 1 mps 668 mmHg 40%
    21:00 +19°C° 0 mm 1 mps 668 mmHg 42%
    22:00 +19°C° 0 mm 1 mps 668 mmHg 44%
    23:00 +18°C° 0 mm 1 mps 667 mmHg 46%

    23 October, Tuesday

    Time Temperature Precipitation Wind Pressure Humidity
    00:00 +18°C° 0 mm 1 mps 667 mmHg 49%
    01:00 +16°C° 0 mm 1 mps 667 mmHg 51%
    02:00 +16°C° 0 mm 1 mps 666 mmHg 54%
    03:00 +15°C° 0 mm 1 mps 666 mmHg 56%
    04:00 +14°C° 0 mm 0 mps 666 mmHg 58%
    05:00 +14°C° 0 mm 0 mps 666 mmHg 60%
    06:00 +13°C° 0 mm 0 mps 665 mmHg 62%
    07:00 +15°C° 0 mm 0 mps 666 mmHg 56%
    08:00 +16°C° 0 mm 0 mps 667 mmHg 50%
    09:00 +18°C° 0 mm 0 mps 667 mmHg 44%
    10:00 +21°C° 0 mm 1 mps 667 mmHg 40%
    11:00 +22°C° 0 mm 1 mps 667 mmHg 37%
    12:00 +23°C° 0 mm 1 mps 666 mmHg 33%
    13:00 +23°C° 0 mm 2 mps 666 mmHg 31%
    14:00 +23°C° 0 mm 2 mps 666 mmHg 30%
    15:00 +23°C° 0 mm 2 mps 665 mmHg 28%
    16:00 +23°C° 0 mm 2 mps 665 mmHg 31%
    17:00 +21°C° 0 mm 2 mps 665 mmHg 34%
    18:00 +21°C° 0 mm 2 mps 665 mmHg 38%
    19:00 +20°C° 0.1 mm 2 mps 665 mmHg 41%
    20:00 +19°C° 0.1 mm 3 mps 665 mmHg 45%
    21:00 +19°C° 0.1 mm 3 mps 665 mmHg 48%
    22:00 +18°C° 0.1 mm 3 mps 664 mmHg 52%
    23:00 +18°C° 0.1 mm 3 mps 664 mmHg 55%
    Show more